Location: Cincinnati Observatory Center
(39.1389°N, 84.4225°W)
Time: 04:58:18
(UTC-05:00)

Amateur Radio Satellites - All Passes

Search period start: 11 December 2016 04:28
Search period end: 12 December 2016 04:28
Location: Cincinnati Observatory Center, 39.1389°N, 84.4225°W

Satellite Date Start Highest point End Downlink Frequencies (MHz)
Time Altitude Azimuth
MOZHAYETS 4 11 Dec 04:40:33 04:43:31 17° 267° (W) 04:46:31
CUBESAT XI-V 11 Dec 04:56:24 05:00:59 81° 256° (WSW) 05:05:37 437.345
BEESAT 2 11 Dec 05:01:23 05:05:15 54° 304° (NW) 05:09:10 435.950
RS-15 11 Dec 05:04:04 05:11:06 18° 97° (E) 05:18:16 29.354- 29.394
ITAMSAT 1 11 Dec 05:05:06 05:08:56 21° 296° (WNW) 05:12:44 435.822/435.867
Cosmos 2504 11 Dec 05:28:47 05:34:48 20° 64° (ENE) 05:40:32 435.465 / 435.565
HORYU 2 11 Dec 05:34:07 05:38:11 35° 98° (E) 05:42:13 437.375
CUTE-I 11 Dec 05:41:25 05:43:54 13° 90° (E) 05:46:21 437.470
BRITE-PL 11 Dec 05:41:36 05:47:11 69° 101° (E) 05:52:51 437.365/2234.400
NOAA 15 11 Dec 05:44:58 05:48:12 16° 92° (E) 05:51:25 137.62
STARS 11 Dec 05:57:19 05:59:13 13° 268° (W) 06:01:09 437.465
YUBILEINY 11 Dec 05:57:38 06:06:24 62° 79° (E) 06:15:07 435.215
STRAND 1 11 Dec 05:59:42 06:03:12 19° 64° (ENE) 06:06:41 437.568
Cubesat XI-IV 11 Dec 06:07:46 06:12:04 24° 95° (E) 06:16:20 437.490
DOVE 4 11 Dec 06:09:08 06:13:10 22° 92° (E) 06:17:04 437.250
AIST 1 11 Dec 06:18:13 06:22:18 35° 78° (ENE) 06:26:19
AO-7 11 Dec 06:19:35 06:25:52 24° 305° (NW) 06:32:09 29.400- 29.500
Cosmos 2491 11 Dec 06:26:13 06:34:34 51° 89° (E) 06:42:53 435.465 / 435.565
GOMX 1 11 Dec 06:26:37 06:32:09 80° 102° (ESE) 06:37:33 467.674
LilacSat-2 11 Dec 06:37:01 06:40:42 52° 100° (E) 06:44:22 437.200
NOAA 18 11 Dec 06:37:02 06:41:45 29° 96° (E) 06:46:27 137.9125
AIST 2 11 Dec 06:41:12 06:44:59 37° 115° (ESE) 06:48:49 435.215
CINEMA 3 11 Dec 06:48:01 06:49:22 11° 88° (E) 06:50:43 145.822/145.860
RS-15 11 Dec 07:09:45 07:21:27 81° 117° (ESE) 07:33:45 29.354- 29.394
HORYU 2 11 Dec 07:11:15 07:14:29 20° 294° (WNW) 07:17:43 437.375
CANX-2 11 Dec 07:11:46 07:13:47 13° 91° (E) 07:15:49 2200.000
CUTE-I 11 Dec 07:19:07 07:24:26 71° 285° (WNW) 07:29:42 437.470
Cosmos 2504 11 Dec 07:20:36 07:29:19 83° 265° (W) 07:37:25 435.465 / 435.565
BRITE-PL 11 Dec 07:21:34 07:25:04 17° 296° (WNW) 07:28:37 437.365/2234.400
NOAA 15 11 Dec 07:23:08 07:28:20 59° 288° (WNW) 07:33:31 137.62
SEEDS 11 Dec 07:26:13 07:26:57 10° 90° (E) 07:27:41 437.485
STRAND 1 11 Dec 07:36:57 07:41:57 52° 260° (W) 07:46:57 437.568
DOVE 4 11 Dec 07:46:05 07:50:59 41° 289° (WNW) 07:55:42 437.250
Cubesat XI-IV 11 Dec 07:47:18 07:52:14 40° 291° (WNW) 07:57:08 437.490
YUBILEINY 11 Dec 07:55:31 08:02:29 27° 278° (W) 08:09:29 435.215
AIST 1 11 Dec 07:56:37 07:59:34 18° 273° (W) 08:02:30
CUBEBUG 2 11 Dec 08:02:22 08:05:07 17° 92° (E) 08:07:50 437.445
GOMX 1 11 Dec 08:06:38 08:09:28 14° 298° (WNW) 08:12:16 467.674
LilacSat-2 11 Dec 08:14:00 08:14:30 10° 295° (WNW) 08:15:01 437.200
NOAA 18 11 Dec 08:17:25 08:22:26 36° 292° (WNW) 08:27:23 137.9125
HO-68 11 Dec 08:20:23 08:27:34 66° 103° (ESE) 08:34:43 435.675
AIST 2 11 Dec 08:20:25 08:23:34 21° 312° (NW) 08:26:46 435.215
AAUSAT CUBESAT 2 11 Dec 08:22:17 08:25:43 24° 95° (E) 08:29:07 437.432
CINEMA 3 11 Dec 08:22:21 08:27:01 64° 285° (WNW) 08:31:26 145.822/145.860
Cosmos 2491 11 Dec 08:23:54 08:31:37 34° 288° (WNW) 08:39:23 435.465 / 435.565
PRISM 11 Dec 08:25:41 08:29:17 31° 70° (ENE) 08:32:55 437.425
CUTE 1.7 + AOD 2 11 Dec 08:26:24 08:30:38 86° 98° (E) 08:34:53 437.475
UWE-3 11 Dec 08:32:00 08:35:20 22° 94° (E) 08:38:36 435.000/436.395/437.385
CANX-2 11 Dec 08:45:49 08:49:53 47° 286° (WNW) 08:53:57 2200.000
COMPASS 1 11 Dec 08:57:57 09:02:09 88° 102° (ESE) 09:06:20 437.405
SEEDS 11 Dec 08:58:52 09:03:00 59° 285° (WNW) 09:07:08 437.485
ZACube-1 11 Dec 08:59:35 09:03:10 27° 96° (E) 09:06:42 437.345
FUNcube-1 11 Dec 09:03:49 09:07:25 28° 96° (E) 09:10:58 145.935
CUSAT 1 11 Dec 09:04:47 09:07:37 50° 97° (E) 09:10:10 437.405
DANDE 11 Dec 09:07:24 09:09:09 13° 95° (E) 09:10:45 436.750
UNISAT 6 11 Dec 09:09:03 09:12:45 24° 68° (ENE) 09:16:24 437.425
PCSat 11 Dec 09:11:51 09:13:04 11° 101° (ESE) 09:14:17 145.827
Cosmos 2504 11 Dec 09:16:58 09:21:09 15° 285° (WNW) 09:25:13 435.465 / 435.565
RS-15 11 Dec 09:24:42 09:35:21 36° 323° (NW) 09:46:25 29.354- 29.394
Oscar 11 11 Dec 09:26:23 09:30:35 51° 99° (E) 09:34:46 145.826/435.025
TIGRISAT 11 Dec 09:36:20 09:40:44 42° 72° (ENE) 09:45:04 435.000
HUMSAT D 11 Dec 09:37:40 09:38:44 11° 91° (E) 09:39:48 437.325/437.525
CUBEBUG 2 11 Dec 09:37:56 09:41:54 37° 289° (WNW) 09:45:47 437.445
ANTELSAT 11 Dec 09:39:17 09:43:45 48° 73° (ENE) 09:48:11 437.575/2403.000
AAUSAT CUBESAT 2 11 Dec 09:57:41 10:01:06 25° 290° (WNW) 10:04:29 437.432
PRISM 11 Dec 10:01:44 10:04:37 19° 266° (W) 10:07:32 437.425
DELFI C3 11 Dec 10:04:09 10:08:01 47° 99° (E) 10:11:52 145.870
Cosmos 2499 11 Dec 10:04:10 10:09:16 17° 62° (ENE) 10:14:09 435.465 / 435.565
UWE-3 11 Dec 10:08:11 10:11:46 27° 290° (WNW) 10:15:17 435.000/436.395/437.385
AO-85 11 Dec 10:08:26 10:12:23 83° 59° (ENE) 10:16:15 145.980
HO-68 11 Dec 10:09:11 10:14:40 24° 301° (WNW) 10:20:10 435.675
QB50P2 11 Dec 10:19:10 10:21:32 15° 65° (ENE) 10:23:53 145.880/145.840
POLYITAN 1 11 Dec 10:19:42 10:21:54 14° 65° (ENE) 10:24:08 437.675
DUCHIFAT 1 11 Dec 10:26:41 10:28:53 14° 65° (ENE) 10:31:05 145.980
JAS-2 11 Dec 10:28:41 10:34:17 37° 70° (ENE) 10:39:22 435.910
QB50P1 11 Dec 10:29:59 10:32:52 18° 66° (ENE) 10:35:45 145.935-145.965
ZACube-1 11 Dec 10:36:04 10:39:18 22° 292° (WNW) 10:42:31 437.345
GONETS M04 11 Dec 10:36:46 10:43:54 27° 69° (ENE) 10:51:00
FUNcube-1 11 Dec 10:40:18 10:43:30 22° 292° (WNW) 10:46:39 145.935
UNISAT 6 11 Dec 10:45:03 10:49:15 33° 263° (W) 10:53:26 437.425
DANDE 11 Dec 10:48:19 10:51:44 27° 281° (W) 10:54:31 436.750
PCSat 11 Dec 10:50:12 10:55:37 89° 301° (WNW) 11:01:05 145.827
ESTCUBE 1 11 Dec 10:50:57 10:52:02 11° 90° (E) 10:53:06 437.505/2401.250
POPSAT HIP 1 11 Dec 10:51:09 10:54:52 29° 70° (ENE) 10:58:35 437.405
BUGSAT 1 11 Dec 10:59:46 11:01:30 12° 64° (ENE) 11:03:14 437.445
Oscar 11 11 Dec 11:04:03 11:06:16 14° 295° (WNW) 11:08:29 145.826/435.025
JUGNU 11 Dec 11:05:47 11:07:28 11° 180° (S) 11:09:10 437.505
HUMSAT D 11 Dec 11:10:40 11:14:38 53° 286° (WNW) 11:18:36 437.325/437.525
TIGRISAT 11 Dec 11:14:21 11:17:33 18° 267° (W) 11:20:44 435.000
ANTELSAT 11 Dec 11:17:49 11:20:40 16° 268° (W) 11:23:29 437.575/2403.000
DELFI C3 11 Dec 11:40:34 11:42:24 13° 294° (WNW) 11:44:14 145.870
NANOSAT C BR1 11 Dec 11:40:47 11:45:03 78° 259° (WSW) 11:49:20 145.865
RS-15 11 Dec 11:44:58 11:53:14 20° 357° (N) 12:01:33 29.354- 29.394
QB50P2 11 Dec 11:52:45 11:56:54 48° 261° (W) 12:01:03 145.880/145.840
POLYITAN 1 11 Dec 11:53:04 11:57:14 51° 260° (W) 12:01:26 437.675
Cosmos 2499 11 Dec 11:55:16 12:03:46 89° 87° (E) 12:11:32 435.465 / 435.565
DUCHIFAT 1 11 Dec 11:59:59 12:04:07 50° 260° (W) 12:08:17 145.980
QB50P1 11 Dec 12:04:21 12:08:20 38° 262° (W) 12:12:20 145.935-145.965
AISAT 11 Dec 12:06:07 12:10:06 31° 97° (E) 12:14:03 437.250
JAS-2 11 Dec 12:14:01 12:19:22 29° 263° (W) 12:24:16 435.910
CUBEBUG 1 11 Dec 12:15:50 12:20:14 59° 101° (E) 12:24:35 437.445
Oscar 19 11 Dec 12:21:48 12:25:59 26° 67° (ENE) 12:30:13 437.125/150
ESTCUBE 1 11 Dec 12:24:45 12:29:14 66° 285° (WNW) 12:33:43 437.505/2401.250
POPSAT HIP 1 11 Dec 12:27:16 12:30:37 22° 265° (W) 12:33:59 437.405
50 SAT 11 Dec 12:28:12 12:31:36 41° 99° (E) 12:34:59 437.505
SPROUT 11 Dec 12:30:48 12:34:47 36° 98° (E) 12:38:42 437.525
UKube-1 11 Dec 12:31:25 12:34:41 21° 95° (E) 12:37:57 .
BUGSAT 1 11 Dec 12:32:10 12:36:21 58° 260° (W) 12:40:33 437.445
GONETS M04 11 Dec 12:32:43 12:41:17 64° 268° (W) 12:49:53
DX 1 11 Dec 12:35:45 12:39:42 32° 98° (E) 12:43:36 434.975-435.025
PCSat 11 Dec 12:36:45 12:39:48 15° 317° (NW) 12:42:51 145.827
BEESAT 3 11 Dec 12:37:56 12:41:47 44° 55° (NE) 12:45:35 437.485
VELOX 1 11 Dec 12:42:13 12:46:43 76° 103° (ESE) 12:51:09 145.980
SRMSAT 11 Dec 12:56:23 12:57:46 11° 177° (S) 12:59:09 437.500
Gurwin Techsat 1B 11 Dec 13:05:27 13:10:13 35° 69° (ENE) 13:15:01 435.225
BEESAT 2 11 Dec 13:20:02 13:24:02 57° 57° (ENE) 13:27:58 435.950
TISAT 1 11 Dec 13:31:22 13:34:56 26° 96° (E) 13:38:27 437.305
AO-7 11 Dec 13:33:49 13:39:34 21° 53° (NE) 13:45:20 29.400- 29.500
AISAT 11 Dec 13:42:51 13:46:23 23° 293° (WNW) 13:49:53 437.250
Cosmos 2499 11 Dec 13:50:56 13:55:28 16° 284° (WNW) 13:59:53 435.465 / 435.565
CUBEBUG 1 11 Dec 13:53:57 13:55:59 13° 297° (WNW) 13:58:00 437.445
ISS 11 Dec 14:00:02 14:03:00 33° 135° (SE) 14:06:00 145.825
Oscar 19 11 Dec 14:00:27 14:05:08 36° 263° (W) 14:09:51 437.125/150
RS-15 11 Dec 14:00:56 14:11:33 31° 33° (NNE) 14:21:55 29.354- 29.394
50 SAT 11 Dec 14:03:17 14:04:29 11° 294° (WNW) 14:05:42 437.505
UKube-1 11 Dec 14:06:53 14:10:45 32° 290° (WNW) 14:14:36 .
SPROUT 11 Dec 14:07:28 14:10:25 18° 293° (WNW) 14:13:21 437.525
DX 1 11 Dec 14:12:18 14:15:41 22° 293° (WNW) 14:19:03 434.975-435.025
BEESAT 3 11 Dec 14:16:48 14:19:01 15° 250° (WSW) 14:21:13 437.485
VELOX 1 11 Dec 14:21:37 14:22:30 11° 298° (WNW) 14:23:24 145.980
ITAMSAT 1 11 Dec 14:41:31 14:46:40 64° 73° (ENE) 14:51:50 435.822/435.867
SWISSCUBE 11 Dec 14:42:39 14:47:00 34° 98° (E) 14:51:19 437.505
Gurwin Techsat 1B 11 Dec 14:45:40 14:50:10 28° 264° (W) 14:54:41 435.225
BEESAT 11 Dec 14:46:03 14:50:22 33° 97° (E) 14:54:38 436.000
O/OREOS (USA 219) 11 Dec 14:46:16 14:50:23 34° 105° (ESE) 14:54:30 437.305
BEESAT 2 11 Dec 14:59:58 15:01:18 11° 252° (WSW) 15:02:37 435.950
MOZHAYETS 4 11 Dec 15:00:36 15:01:33 11° 90° (E) 15:02:30
AUBIESAT-1 11 Dec 15:03:24 15:07:21 30° 101° (E) 15:11:05 437.475
AIST 2 11 Dec 15:03:41 15:06:55 21° 48° (NE) 15:10:06 435.215
TISAT 1 11 Dec 15:07:04 15:10:27 24° 292° (WNW) 15:13:48 437.305
ITUPSAT 1 11 Dec 15:17:34 15:22:19 71° 101° (ESE) 15:27:04 437.325
M-CUBED/EXP-1 PRIME 11 Dec 15:20:35 15:25:09 60° 105° (ESE) 15:29:24 437.505
AO-7 11 Dec 15:22:58 15:31:17 88° 251° (WSW) 15:39:41 29.400- 29.500
ISS 11 Dec 15:36:37 15:39:31 28° 331° (NNW) 15:42:25 145.825
STARS 11 Dec 16:11:28 16:12:24 11° 90° (E) 16:13:20 437.465
RS-15 11 Dec 16:13:37 16:26:05 86° 60° (ENE) 16:38:03 29.354- 29.394
KKS-1 11 Dec 16:20:09 16:24:09 31° 97° (E) 16:28:07 437.445
SWISSCUBE 11 Dec 16:20:49 16:24:35 24° 293° (WNW) 16:28:19 437.505
ITAMSAT 1 11 Dec 16:23:45 16:26:32 15° 269° (W) 16:29:21 435.822/435.867
BEESAT 11 Dec 16:24:09 16:27:57 24° 293° (WNW) 16:31:46 436.000
O/OREOS (USA 219) 11 Dec 16:26:17 16:29:51 22° 301° (WNW) 16:33:25 437.305
HORYU 2 11 Dec 16:31:00 16:34:53 29° 69° (ENE) 16:38:45 437.375
MOZHAYETS 4 11 Dec 16:34:36 16:39:08 68° 285° (WNW) 16:43:39
AUBIESAT-1 11 Dec 16:37:54 16:41:35 25° 297° (WNW) 16:45:06 437.475
Cosmos 2491 11 Dec 16:38:35 16:45:12 23° 67° (ENE) 16:51:45 435.465 / 435.565
AIST 2 11 Dec 16:41:34 16:45:32 40° 245° (WSW) 16:49:29 435.215
BRITE-PL 11 Dec 16:51:40 16:56:01 63° 74° (ENE) 17:00:46 437.365/2234.400
CUBESAT XI-V 11 Dec 16:54:20 16:58:19 27° 95° (E) 17:02:18 437.345
M-CUBED/EXP-1 PRIME 11 Dec 16:56:29 16:59:01 15° 302° (WNW) 17:01:30 437.505
ITUPSAT 1 11 Dec 16:57:34 16:59:32 13° 298° (WNW) 17:01:31 437.325
CUTE-I 11 Dec 17:01:31 17:05:29 22° 64° (ENE) 17:09:28 437.470
NOAA 15 11 Dec 17:03:43 17:07:51 24° 65° (ENE) 17:12:00 137.62
YUBILEINY 11 Dec 17:07:18 17:10:12 12° 74° (ENE) 17:13:06 435.215
DOVE 4 11 Dec 17:13:22 17:16:59 20° 65° (ENE) 17:20:42 437.250
ISS 11 Dec 17:16:05 17:16:53 11° 351° (N) 17:17:41 145.825
LilacSat-2 11 Dec 17:18:14 17:21:15 22° 70° (ENE) 17:24:16 437.200
AO-7 11 Dec 17:20:17 17:25:02 16° 269° (W) 17:29:51 29.400- 29.500
Cubesat XI-IV 11 Dec 17:28:26 17:33:19 37° 69° (ENE) 17:38:13 437.490
GOMX 1 11 Dec 17:33:15 17:37:56 71° 76° (ENE) 17:43:00 467.674
STARS 11 Dec 17:44:46 17:49:08 64° 286° (WNW) 17:53:28 437.465
CINEMA 3 11 Dec 17:48:29 17:50:11 12° 61° (ENE) 17:51:54 145.822/145.860
KKS-1 11 Dec 17:57:01 18:00:32 23° 293° (WNW) 18:04:01 437.445
PCSat 11 Dec 17:59:20 17:59:59 10° 38° (NE) 18:00:38 145.827
NOAA 18 11 Dec 18:01:55 18:07:14 49° 70° (ENE) 18:12:34 137.9125
Cosmos 2504 11 Dec 18:07:27 18:12:11 16° 76° (ENE) 18:17:00 435.465 / 435.565
HORYU 2 11 Dec 18:07:45 18:11:23 24° 264° (W) 18:15:02 437.375
RS-15 11 Dec 18:28:00 18:36:58 25° 260° (W) 18:45:44 29.354- 29.394
CUBESAT XI-V 11 Dec 18:31:38 18:35:37 28° 291° (WNW) 18:39:37 437.345
BRITE-PL 11 Dec 18:33:48 18:35:06 11° 273° (W) 18:36:24 437.365/2234.400
Cosmos 2491 11 Dec 18:34:11 18:42:50 73° 267° (W) 18:51:30 435.465 / 435.565
SO-50 11 Dec 18:37:40 18:42:12 44° 116° (ESE) 18:46:41 436.795
CUTE-I 11 Dec 18:40:00 18:45:10 48° 260° (W) 18:50:22 437.470
NOAA 15 11 Dec 18:42:28 18:47:21 40° 261° (W) 18:52:18 137.62
AIST 1 11 Dec 18:46:49 18:50:09 22° 88° (E) 18:53:31
HO-68 11 Dec 18:47:42 18:54:22 44° 66° (ENE) 19:01:04 435.675
DOVE 4 11 Dec 18:49:31 18:54:14 47° 262° (W) 18:59:14 437.250
LilacSat-2 11 Dec 18:52:21 18:55:26 23° 265° (W) 18:58:30 437.200
ISS 11 Dec 18:53:25 18:54:36 11° 12° (NNE) 18:55:46 145.825
YUBILEINY 11 Dec 18:56:40 19:05:18 73° 93° (E) 19:14:02 435.215
CUBEBUG 2 11 Dec 18:59:33 19:02:14 15° 65° (ENE) 19:04:53 437.445
Cubesat XI-IV 11 Dec 19:08:55 19:13:25 27° 265° (W) 19:17:56 437.490
AAUSAT CUBESAT 2 11 Dec 19:12:25 19:14:43 15° 66° (ENE) 19:17:00 437.432
GOMX 1 11 Dec 19:15:10 19:16:39 11° 273° (W) 19:18:09 467.674
CUTE 1.7 + AOD 2 11 Dec 19:17:40 19:21:43 50° 74° (ENE) 19:25:47 437.475
CINEMA 3 11 Dec 19:21:34 19:26:33 84° 257° (WSW) 19:31:37 145.822/145.860
UWE-3 11 Dec 19:27:58 19:31:10 19° 67° (ENE) 19:34:20 435.000/436.395/437.385
CUSAT 1 11 Dec 19:34:43 19:38:44 36° 79° (E) 19:43:53 437.405
CANX-2 11 Dec 19:36:53 19:41:05 81° 258° (WSW) 19:45:19 2200.000
PCSat 11 Dec 19:39:14 19:44:35 57° 58° (ENE) 19:49:54 145.827
NOAA 18 11 Dec 19:44:00 19:48:06 21° 266° (W) 19:52:16 137.9125
COMPASS 1 11 Dec 19:47:17 19:51:14 47° 74° (ENE) 19:55:12 437.405
STRAND 1 11 Dec 19:48:23 19:53:25 58° 101° (E) 19:58:25 437.568
SEEDS 11 Dec 19:48:56 19:53:04 79° 77° (ENE) 19:57:15 437.485
ZACube-1 11 Dec 19:54:20 19:57:44 21° 68° (ENE) 20:01:05 437.345
Cosmos 2504 11 Dec 19:55:38 20:04:07 86° 94° (E) 20:13:03 435.465 / 435.565
FUNcube-1 11 Dec 19:58:17 20:01:40 21° 68° (ENE) 20:05:01 145.935
SO-50 11 Dec 20:19:03 20:22:51 23° 313° (NW) 20:26:37 436.795
Oscar 11 11 Dec 20:20:01 20:23:53 33° 71° (ENE) 20:27:46 145.826/435.025
AIST 1 11 Dec 20:23:51 20:27:34 28° 284° (WNW) 20:31:20
ISS 11 Dec 20:28:49 20:31:53 34° 31° (NNE) 20:34:56 145.825
CUBEBUG 2 11 Dec 20:33:43 20:38:22 56° 260° (W) 20:42:59 437.445
Cosmos 2491 11 Dec 20:35:15 20:38:00 12° 286° (WNW) 20:40:46 435.465 / 435.565
HO-68 11 Dec 20:35:45 20:42:07 35° 263° (W) 20:48:34 435.675
AAUSAT CUBESAT 2 11 Dec 20:45:55 20:49:48 42° 261° (W) 20:53:44 437.432
DELFI C3 11 Dec 20:49:06 20:52:12 23° 70° (ENE) 20:55:20 145.870
CUTE 1.7 + AOD 2 11 Dec 20:56:04 20:57:49 12° 269° (W) 20:59:35 437.475
YUBILEINY 11 Dec 20:56:24 21:02:58 23° 294° (WNW) 21:09:35 435.215
PHONESAT 2.4 11 Dec 20:59:28 21:00:20 11° 147° (SSE) 21:01:14 2401.200-2431.200
UWE-3 11 Dec 21:02:55 21:07:18 42° 262° (W) 21:11:38 435.000/436.395/437.385
CUSAT 1 11 Dec 21:17:06 21:20:32 21° 266° (W) 21:24:39 437.405
PCSat 11 Dec 21:23:50 21:27:28 18° 255° (WSW) 21:31:07 145.827
DANDE 11 Dec 21:23:56 21:27:09 54° 262° (W) 21:31:20 436.750
COMPASS 1 11 Dec 21:25:18 21:27:02 12° 269° (W) 21:28:47 437.405
STRAND 1 11 Dec 21:28:56 21:32:05 17° 297° (WNW) 21:35:16 437.568
ZACube-1 11 Dec 21:29:40 21:33:47 34° 263° (W) 21:37:51 437.345
FUNcube-1 11 Dec 21:33:37 21:37:42 33° 263° (W) 21:41:43 145.935
PRISM 11 Dec 21:42:37 21:46:45 61° 101° (E) 21:50:53 437.425
Cosmos 2504 11 Dec 21:52:43 21:58:40 20° 296° (WNW) 22:04:49 435.465 / 435.565
Oscar 11 11 Dec 21:56:57 22:00:04 19° 266° (W) 22:03:12 145.826/435.025
HUMSAT D 11 Dec 22:00:07 22:04:18 87° 81° (E) 22:08:28 437.325/437.525
ISS 11 Dec 22:05:30 22:08:17 25° 227° (SW) 22:11:04 145.825
DELFI C3 11 Dec 22:23:45 22:26:55 23° 265° (W) 22:30:06 145.870
PHONESAT 2.4 11 Dec 22:32:29 22:35:05 57° 163° (SSE) 22:37:42 2401.200-2431.200
UNISAT 6 11 Dec 22:37:29 22:41:45 55° 100° (E) 22:45:55 437.425
Cosmos 2499 11 Dec 22:41:25 22:45:19 14° 75° (ENE) 22:49:15 435.465 / 435.565
AISAT 11 Dec 23:02:29 23:06:05 25° 68° (ENE) 23:09:43 437.250
50 SAT 11 Dec 23:03:29 23:05:30 15° 67° (ENE) 23:07:31 437.505
TIGRISAT 11 Dec 23:05:22 23:09:42 76° 284° (WNW) 23:13:56 435.000
ANTELSAT 11 Dec 23:08:36 23:12:55 65° 284° (WNW) 23:17:07 437.575/2403.000
CUBEBUG 1 11 Dec 23:10:28 23:14:35 41° 72° (ENE) 23:18:44 437.445
PRISM 11 Dec 23:20:09 23:21:31 11° 297° (WNW) 23:22:54 437.425
JAS-2 11 Dec 23:22:45 23:27:31 33° 98° (E) 23:32:35 435.910
ESTCUBE 1 11 Dec 23:22:46 23:27:14 84° 260° (W) 23:31:44 437.505/2401.250
SPROUT 11 Dec 23:23:19 23:26:49 25° 69° (ENE) 23:30:20 437.525
UKube-1 11 Dec 23:25:28 23:28:08 16° 65° (ENE) 23:30:50 .
NANOSAT C BR1 11 Dec 23:27:14 23:30:06 18° 93° (E) 23:32:57 145.865
DX 1 11 Dec 23:30:23 23:33:54 25° 68° (ENE) 23:37:28 434.975-435.025
GONETS M04 11 Dec 23:36:54 23:44:14 32° 84° (E) 23:51:33
VELOX 1 11 Dec 23:38:04 23:42:23 57° 73° (ENE) 23:46:45 145.980
QB50P2 11 Dec 23:38:57 23:42:37 28° 96° (E) 23:46:14 145.880/145.840
POLYITAN 1 11 Dec 23:39:21 23:42:56 26° 96° (E) 23:46:28 437.675
DUCHIFAT 1 11 Dec 23:45:26 23:48:57 26° 96° (E) 23:52:28 145.980
QB50P1 11 Dec 23:49:59 23:53:52 35° 98° (E) 23:57:42 145.935-145.965
PHONESAT 2.4 12 Dec 00:07:36 00:10:14 61° 358° (N) 00:12:51 2401.200-2431.200
POPSAT HIP 1 12 Dec 00:11:57 00:16:09 63° 101° (E) 00:20:18 437.405
BUGSAT 1 12 Dec 00:15:46 00:18:56 21° 95° (E) 00:22:03 437.445
UNISAT 6 12 Dec 00:15:58 00:17:57 13° 296° (WNW) 00:19:54 437.425
AO-85 12 Dec 00:21:00 00:25:35 37° 115° (ESE) 00:29:52 145.980
TISAT 1 12 Dec 00:22:23 00:25:17 18° 66° (ENE) 00:28:12 437.305
Cosmos 2499 12 Dec 00:28:13 00:36:50 76° 94° (E) 00:45:45 435.465 / 435.565
50 SAT 12 Dec 00:35:26 00:38:31 29° 263° (W) 00:41:38 437.505
AISAT 12 Dec 00:38:35 00:42:24 29° 263° (W) 00:46:17 437.250
CUBEBUG 1 12 Dec 00:48:16 00:51:02 16° 267° (W) 00:53:48 437.445
O/OREOS (USA 219) 12 Dec 00:56:57 01:01:21 55° 66° (ENE) 01:05:43 437.305
SPROUT 12 Dec 00:58:59 01:02:38 27° 264° (W) 01:06:17 437.525
UKube-1 12 Dec 00:59:42 01:03:48 43° 260° (W) 01:07:57 .
NANOSAT C BR1 12 Dec 01:02:05 01:05:55 35° 289° (WNW) 01:09:43 145.865
DX 1 12 Dec 01:06:14 01:09:58 28° 263° (W) 01:13:44 434.975-435.025
JAS-2 12 Dec 01:08:03 01:12:33 29° 292° (WNW) 01:17:19 435.910
QB50P2 12 Dec 01:14:56 01:18:15 23° 292° (WNW) 01:21:33 145.880/145.840
POLYITAN 1 12 Dec 01:15:13 01:18:36 24° 291° (WNW) 01:21:58 437.675
VELOX 1 12 Dec 01:17:25 01:19:10 12° 269° (W) 01:20:57 145.980
DUCHIFAT 1 12 Dec 01:21:09 01:24:31 24° 291° (WNW) 01:27:53 145.980
Gurwin Techsat 1B 12 Dec 01:23:59 01:26:53 15° 91° (E) 01:29:45 435.225
QB50P1 12 Dec 01:26:24 01:29:21 19° 293° (WNW) 01:32:17 145.935-145.965
GONETS M04 12 Dec 01:32:08 01:40:35 53° 283° (WNW) 01:49:04
PHONESAT 2.4 12 Dec 01:42:47 01:45:25 80° 192° (SSW) 01:48:02 2401.200-2431.200
AUBIESAT-1 12 Dec 01:47:22 01:51:12 32° 64° (ENE) 01:55:12 437.475
SWISSCUBE 12 Dec 01:47:57 01:52:16 36° 70° (ENE) 01:56:36 437.505
POPSAT HIP 1 12 Dec 01:50:08 01:51:22 11° 297° (WNW) 01:52:34 437.405
BUGSAT 1 12 Dec 01:50:42 01:54:18 28° 290° (WNW) 01:57:49 437.445
BEESAT 12 Dec 01:51:17 01:55:35 34° 70° (ENE) 01:59:53 436.000
TISAT 1 12 Dec 01:56:41 02:00:37 36° 262° (W) 02:04:35 437.305
AO-85 12 Dec 02:02:00 02:06:04 26° 310° (NW) 02:09:54 145.980
M-CUBED/EXP-1 PRIME 12 Dec 02:04:54 02:09:06 61° 69° (ENE) 02:13:36 437.505
Oscar 19 12 Dec 02:12:25 02:17:39 87° 104° (ESE) 02:22:52 437.125/150
ITUPSAT 1 12 Dec 02:22:57 02:27:42 73° 75° (ENE) 02:32:28 437.325
Cosmos 2499 12 Dec 02:24:12 02:30:51 24° 294° (WNW) 02:37:39 435.465 / 435.565
O/OREOS (USA 219) 12 Dec 02:38:20 02:40:13 12° 262° (W) 02:42:05 437.305
ITAMSAT 1 12 Dec 02:56:08 03:00:18 24° 95° (E) 03:04:25 435.822/435.867
Gurwin Techsat 1B 12 Dec 03:01:59 03:07:15 65° 286° (WNW) 03:12:29 435.225
SO-50 12 Dec 03:10:16 03:14:15 29° 50° (NE) 03:18:10 436.795
BEESAT 2 12 Dec 03:12:41 03:14:23 12° 108° (ESE) 03:16:05 435.950
KKS-1 12 Dec 03:17:12 03:20:55 26° 68° (ENE) 03:24:39 437.445
PHONESAT 2.4 12 Dec 03:18:27 03:20:16 17° 209° (SSW) 03:22:05 2401.200-2431.200
AUBIESAT-1 12 Dec 03:22:08 03:25:35 24° 261° (W) 03:29:11 437.475
AO-7 12 Dec 03:26:22 03:33:45 33° 97° (E) 03:41:05 29.400- 29.500
SWISSCUBE 12 Dec 03:26:25 03:30:07 22° 265° (W) 03:33:50 437.505
BEESAT 12 Dec 03:29:38 03:33:24 23° 265° (W) 03:37:12 436.000
MOZHAYETS 4 12 Dec 03:34:56 03:39:30 82° 257° (WSW) 03:44:06
M-CUBED/EXP-1 PRIME 12 Dec 03:42:17 03:44:00 12° 266° (W) 03:45:45 437.505
Oscar 19 12 Dec 03:54:23 03:56:12 12° 300° (WNW) 03:58:01 437.125/150
CUBESAT XI-V 12 Dec 03:56:50 04:00:28 24° 68° (ENE) 04:04:06 437.345
BEESAT 3 12 Dec 04:04:00 04:07:52 68° 302° (WNW) 04:11:48 437.485
ITUPSAT 1 12 Dec 04:04:54 04:06:00 11° 270° (W) 04:07:06 437.325
